Date String (YYYY-MM-DD hh:mm:ss) UTC,Instrument flags,absolute air pressure of the measurement (hPa),sample flow rate (lpm),inlet stack bypass flow (lpm),air temperature of the measurement (°C),ambient temperature measured by the external sensor (°C),aerosol sample conditioner tube jacket temperature (°C),OPC LED temperature (°C),internal box temperature (°C),relative humidity of the measurement (%),span deviation,mass concentration of particles derived from Lorenz-Mie calculation of OPC scattering (μg/m³),mass concentration of particles derived from Lorenz-Mie calculation of OPC scattering (μg/m³),mass concentration of particles derived from Lorenz-Mie calculation of OPC scattering (μg/m³)
DateTimeUTC,F1_M11,P_M11,Q1_M11,Q2_M11,T1_M11,T2_M11,T3_M11,T4_M11,T5_M11,U1_M11,ZSPAN_M11,X0_M11,X2_M11,X1_M11
2024-06-14 01:00:00,SystemResetWarning,0831.2,4.99,000.00,028.2,026.0,000.0,036.8,029.6,030.8,0000.0,0035.45,0007.40,0004.63
2024-06-14 01:01:00,SystemResetWarning,0831.2,5.01,000.00,028.3,026.5,000.0,036.8,029.8,030.8,0000.0,0035.47,0007.41,0004.64
2024-06-14 01:02:00,SystemResetWarning,0831.2,4.99,000.00,028.4,027.0,000.0,036.8,030.1,030.8,0000.0,0033.77,0007.33,0004.64
2024-06-14 01:03:00,SystemResetWarning,0831.2,4.99,000.00,028.5,027.4,000.0,036.8,030.3,031.0,0000.0,0033.98,0007.31,0004.65
2024-06-14 01:04:00,SystemResetWarning,0831.3,5.00,000.00,028.6,027.7,000.0,036.8,030.4,031.0,0000.0,0034.20,0007.35,0004.65
2024-06-14 01:05:00,SystemResetWarning,0831.3,5.00,000.00,028.7,028.0,000.0,036.8,030.6,030.9,0000.0,0034.29,0007.36,0004.64
2024-06-14 01:06:00,SystemResetWarning,0831.3,5.00,000.00,028.8,028.2,000.0,036.8,030.7,031.0,0000.0,0034.22,0007.30,0004.64
2024-06-14 01:07:00,SystemResetWarning,0831.4,5.00,000.00,028.9,028.5,000.0,036.9,030.8,030.9,0000.0,0034.38,0007.38,0004.64
2024-06-14 01:08:00,SystemResetWarning,0831.3,5.00,000.00,029.0,028.6,000.0,036.9,030.9,030.8,0000.0,0034.35,0007.35,0004.65
2024-06-14 01:09:00,SystemResetWarning,0831.3,4.99,000.00,028.9,027.3,000.0,037.0,030.3,030.9,0000.0,0034.77,0007.31,0004.66
2024-06-14 01:10:00,SystemResetWarning,0831.2,5.01,000.00,028.6,025.3,000.0,037.0,029.3,031.5,0000.0,0034.70,0007.32,0004.66
2024-06-14 01:11:00,SystemResetWarning,0831.2,5.01,000.00,028.3,025.3,000.0,037.0,029.2,032.4,0000.0,0033.75,0007.30,0004.65
2024-06-14 01:12:00,SystemResetWarning,0831.3,5.00,000.00,028.3,025.9,000.0,036.9,029.5,032.5,0000.0,0033.40,0007.28,0004.64
2024-06-14 01:13:00,SystemResetWarning,0831.3,5.00,000.00,028.3,026.3,000.0,036.8,029.7,032.7,0000.0,0034.01,0007.33,0004.63
2024-06-14 01:14:00,SystemResetWarning,0831.3,5.00,000.00,028.4,026.8,000.0,036.8,030.0,032.5,0000.0,0033.01,0007.35,0004.63
2024-06-14 01:15:00,SystemResetWarning,0831.4,4.99,000.00,028.5,027.2,000.0,036.8,030.2,032.3,0000.0,0033.46,0007.29,0004.62
2024-06-14 01:16:00,SystemResetWarning,0831.3,4.99,000.00,028.6,027.6,000.0,036.8,030.4,032.1,0000.0,0033.76,0007.26,0004.63
2024-06-14 01:17:00,SystemResetWarning,0831.4,5.00,000.00,028.6,027.9,000.0,036.8,030.5,032.1,0000.0,0034.23,0007.34,0004.62
2024-06-14 01:18:00,SystemResetWarning,0831.4,5.00,000.00,028.7,028.2,000.0,036.8,030.6,032.2,0000.0,0033.39,0007.35,0004.61
2024-06-14 01:19:00,SystemResetWarning,0831.4,5.01,000.00,028.8,028.4,000.0,036.9,030.8,031.9,0000.0,0032.37,0007.36,0004.62
2024-06-14 01:20:00,SystemResetWarning,0831.5,5.00,000.00,028.9,028.6,000.0,036.9,030.9,031.9,0000.0,0032.57,0007.31,0004.60
2024-06-14 01:21:00,SystemResetWarning,0831.5,4.99,000.00,029.0,028.6,000.0,037.0,030.9,031.6,0000.0,0032.56,0007.27,0004.60
2024-06-14 01:22:00,SystemResetWarning,0831.4,4.99,000.00,028.9,026.9,000.0,037.0,030.1,031.7,0000.0,0031.08,0007.27,0004.60
2024-06-14 01:23:00,SystemResetWarning,0831.4,5.01,000.00,028.5,025.3,000.0,037.1,029.3,032.4,0000.0,0031.68,0007.32,0004.60
2024-06-14 01:24:00,SystemResetWarning,0831.4,5.00,000.00,028.3,025.5,000.0,037.0,029.3,032.7,0000.0,0031.64,0007.31,0004.61
2024-06-14 01:25:00,SystemResetWarning,0831.4,5.00,000.00,028.3,026.0,000.0,036.9,029.6,032.7,0000.0,0033.87,0007.34,0004.60
2024-06-14 01:26:00,SystemResetWarning,0831.5,5.00,000.00,028.4,026.5,000.0,036.9,029.8,032.7,0000.0,0032.92,0007.36,0004.59
2024-06-14 01:27:00,SystemResetWarning,0831.5,5.00,000.00,028.4,027.0,000.0,036.8,030.1,032.4,0000.0,0032.87,0007.37,0004.60
2024-06-14 01:28:00,SystemResetWarning,0831.5,5.00,000.00,028.5,027.4,000.0,036.8,030.2,032.4,0000.0,0033.27,0007.36,0004.59
2024-06-14 01:29:00,SystemResetWarning,0831.6,5.00,000.00,028.6,027.7,000.0,036.8,030.4,032.1,0000.0,0033.81,0007.32,0004.60
2024-06-14 01:30:00,SystemResetWarning,0831.6,5.00,000.00,028.7,028.0,000.0,036.9,030.6,032.0,0000.0,0034.33,0007.28,0004.59
2024-06-14 01:31:00,SystemResetWarning,0831.6,5.00,000.00,028.8,028.3,000.0,036.9,030.7,031.5,0000.0,0033.81,0007.29,0004.60
2024-06-14 01:32:00,SystemResetWarning,0831.7,5.00,000.00,028.9,028.5,000.0,036.9,030.8,031.5,0000.0,0032.89,0007.29,0004.59
2024-06-14 01:33:00,SystemResetWarning,0831.7,5.00,000.00,029.0,028.7,000.0,037.0,030.9,031.6,0000.0,0032.26,0007.24,0004.59
2024-06-14 01:34:00,SystemResetWarning,0831.7,4.99,000.00,029.0,027.5,000.0,037.0,030.3,031.5,0000.0,0032.46,0007.18,0004.58
2024-06-14 01:35:00,SystemResetWarning,0831.6,5.01,000.00,028.6,025.5,000.0,037.1,029.3,032.2,0000.0,0032.08,0007.21,0004.58
2024-06-14 01:36:00,SystemResetWarning,0831.6,5.01,000.00,028.3,025.3,000.0,037.1,029.1,032.8,0000.0,0031.64,0007.19,0004.58
2024-06-14 01:37:00,SystemResetWarning,0831.7,5.00,000.00,028.3,025.8,000.0,037.0,029.4,032.9,0000.0,0031.81,0007.22,0004.58
2024-06-14 01:38:00,SystemResetWarning,0831.7,5.00,000.00,028.3,026.3,000.0,036.9,029.7,033.0,0000.0,0031.74,0007.30,0004.57
2024-06-14 01:39:00,SystemResetWarning,0831.7,5.00,000.00,028.4,026.8,000.0,036.8,030.0,032.7,0000.0,0031.36,0007.28,0004.58
2024-06-14 01:40:00,SystemResetWarning,0831.9,5.00,000.00,028.4,027.2,000.0,036.8,030.2,032.5,0000.0,0030.25,0007.26,0004.56
2024-06-14 01:41:00,SystemResetWarning,0832.0,5.00,000.00,028.5,027.6,000.0,036.8,030.4,032.2,0000.0,0030.70,0007.31,0004.56
2024-06-14 01:42:00,SystemResetWarning,0831.8,4.99,000.00,028.6,027.9,000.0,036.8,030.5,032.0,0000.0,0030.79,0007.37,0004.55
2024-06-14 01:43:00,SystemResetWarning,0831.9,5.00,000.00,028.7,028.1,000.0,036.9,030.6,031.6,0000.0,0030.68,0007.44,0004.56
2024-06-14 01:44:00,SystemResetWarning,0831.9,5.01,000.00,028.8,028.4,000.0,036.9,030.7,031.4,0000.0,0033.25,0007.51,0004.57
2024-06-14 01:45:00,SystemResetWarning,0832.0,5.00,000.00,028.9,028.6,000.0,036.9,030.9,031.4,0000.0,0033.45,0007.56,0004.58
2024-06-14 01:46:00,SystemResetWarning,0832.0,5.00,000.00,029.0,028.7,000.0,037.0,031.0,030.8,0000.0,0034.76,0007.63,0004.58
2024-06-14 01:47:00,SystemResetWarning,0831.9,4.99,000.00,029.1,028.2,000.0,037.1,030.7,030.7,0000.0,0035.76,0007.67,0004.58
2024-06-14 01:48:00,SystemResetWarning,0831.9,5.00,000.00,028.8,026.0,000.0,037.1,029.7,031.5,0000.0,0038.20,0007.62,0004.57
2024-06-14 01:49:00,SystemResetWarning,0831.9,5.02,000.00,028.4,025.1,000.0,037.1,029.2,032.1,0000.0,0037.75,0007.55,0004.56
2024-06-14 01:50:00,SystemResetWarning,0832.0,5.00,000.00,028.3,025.6,000.0,037.0,029.3,032.3,0000.0,0037.73,0007.58,0004.55
2024-06-14 01:51:00,SystemResetWarning,0832.0,5.00,000.00,028.3,026.1,000.0,036.9,029.6,032.5,0000.0,0040.73,0007.62,0004.57
2024-06-14 01:52:00,SystemResetWarning,0832.1,5.01,000.00,028.4,026.5,000.0,036.9,029.9,032.2,0000.0,0041.23,0007.64,0004.57
2024-06-14 01:53:00,SystemResetWarning,0832.1,5.01,000.00,028.4,027.0,000.0,036.8,030.1,032.3,0000.0,0042.18,0007.67,0004.56
2024-06-14 01:54:00,SystemResetWarning,0832.1,5.00,000.00,028.5,027.4,000.0,036.8,030.3,031.9,0000.0,0043.21,0007.59,0004.55
2024-06-14 01:55:00,SystemResetWarning,0832.2,5.00,000.00,028.6,027.7,000.0,036.8,030.4,031.4,0000.0,0042.89,0007.60,0004.54
2024-06-14 01:56:00,SystemResetWarning,0832.2,5.00,000.00,028.7,028.0,000.0,036.9,030.6,031.1,0000.0,0043.07,0007.58,0004.52
2024-06-14 01:57:00,SystemResetWarning,0832.2,5.00,000.00,028.8,028.3,000.0,036.9,030.7,030.8,0000.0,0042.11,0007.53,0004.52
2024-06-14 01:58:00,SystemResetWarning,0832.2,4.99,000.00,028.9,028.5,000.0,036.9,030.8,030.8,0000.0,0040.35,0007.49,0004.51
2024-06-14 01:59:00,SystemResetWarning,0832.2,5.00,000.00,029.0,028.6,000.0,037.0,031.0,030.7,0000.0,0039.07,0007.52,0004.52
